Theta_e
337 345 349 350 349 351 348 347 343 344 342 342 342 343 344 344 344 345 346 345 342 339 339 339 338 339 340 339 339 339 338 337 338 340 343 344 345 346 345 346 344 341 346
341 344 348 350 351 348 345 346 344 344 342 342 342 341 343 342 342 345 344 344 340 338 338 338 338 338 339 338 340 341 339 338 337 337 337 340 342 343 343 344 343 342 344
341 346 347 348 349 348 346 344 344 344 342 341 340 340 342 341 343 344 342 343 339 337 337 337 337 338 338 338 340 340 338 338 336 335 334 330 335 340 340 340 341 341 342
342 346 347 345 348 348 346 344 342 343 341 340 340 339 341 340 344 344 341 340 337 336 336 336 337 337 337 337 339 338 336 335 335 332 326 327 329 336 338 337 337 338 338
340 345 345 345 348 348 346 344 344 343 341 339 339 339 340 339 341 342 339 337 336 335 335 335 336 336 336 339 338 336 336 336 334 330 326 326 327 332 335 335 334 335 336
339 343 343 346 348 347 346 345 343 342 340 338 338 338 339 338 338 339 337 334 333 333 334 334 334 335 334 335 337 336 335 333 331 329 329 332 331 339 339 336 335 336 336
339 342 344 345 347 346 346 344 342 341 339 337 336 336 337 337 336 336 333 331 330 330 331 332 333 332 332 333 336 332 331 330 323 326 328 330 330 335 336 334 333 332 332
340 342 343 339 341 343 344 343 341 340 339 336 334 334 334 334 333 333 331 328 327 328 329 330 330 331 331 332 331 330 328 326 323 325 327 327 332 333 333 332 330 329 330
341 342 341 342 340 337 339 339 339 338 337 335 335 335 334 333 332 331 330 327 326 327 328 328 329 330 329 329 327 326 325 323 317 324 325 325 331 331 331 329 328 329 328
341 341 340 340 340 340 338 333 334 335 335 334 335 332 330 330 329 328 327 327 326 327 327 328 328 327 327 325 323 321 321 322 320 321 324 326 329 329 329 328 325 325 325
337 339 340 339 339 338 337 332 330 331 331 331 329 326 324 324 324 323 324 326 326 325 326 325 325 323 321 319 319 317 315 312 315 319 323 327 327 328 326 325 324 322 321
330 336 339 339 339 338 338 332 331 331 331 330 328 326 325 324 323 323 321 323 324 324 325 323 322 319 315 310 310 311 308 308 310 312 321 325 326 325 325 322 320 319 319
330 335 337 337 338 337 336 334 333 331 329 328 327 327 326 323 321 318 317 314 314 314 313 314 311 310 309 309 307 306 305 306 307 310 320 323 323 323 321 321 319 318 318
329 332 335 336 336 338 338 336 334 332 329 327 326 323 322 322 320 318 316 313 311 311 310 308 306 305 304 304 305 303 303 304 305 307 312 320 321 321 321 319 318 318 316
327 330 333 334 335 336 335 335 334 333 329 326 325 323 324 322 320 319 316 314 312 311 309 306 306 302 300 300 300 300 300 302 301 300 304 313 317 318 319 319 318 317 316
325 329 332 333 336 336 335 334 334 333 329 327 325 324 325 323 321 320 317 314 314 311 310 303 299 296 294 295 294 295 295 299 299 295 295 299 311 313 315 316 317 316 315
323 328 329 332 332 335 334 334 334 333 330 328 325 325 323 323 321 315 313 310 310 310 304 299 295 293 291 291 290 291 290 291 292 292 291 292 293 306 310 313 314 314 313
320 323 328 331 328 333 333 334 333 333 333 331 329 326 323 323 321 315 312 310 310 308 300 297 293 291 291 290 289 288 288 288 288 289 288 289 289 291 302 308 309 310 311
319 322 326 327 327 327 327 331 333 332 332 332 330 326 324 322 319 313 310 309 309 305 300 296 293 292 290 289 289 289 288 288 286 287 285 285 286 285 288 296 299 306 309
317 322 325 326 325 324 322 319 318 321 320 326 328 326 324 320 316 312 308 308 308 304 298 295 293 292 290 288 288 287 287 287 285 285 284 284 284 284 284 285 286 292 304
315 320 323 322 322 321 318 316 314 314 311 312 316 321 322 319 315 309 307 308 307 304 299 295 292 290 288 288 286 285 286 286 286 286 283 283 283 283 283 284 285 286 287
315 320 321 322 321 320 318 312 313 310 307 307 308 310 312 314 311 308 306 306 306 303 298 293 291 289 288 289 286 285 279 283 284 285 284 283 281 283 282 283 283 284 284
312 316 321 321 319 317 314 306 303 303 302 302 303 303 305 307 307 306 306 305 305 303 297 293 291 289 287 288 288 288 282 281 281 283 282 283 281 280 280 281 282 283 282
307 313 316 319 317 315 311 310 309 308 305 304 302 302 302 303 303 303 304 305 304 302 298 294 292 291 289 287 287 288 289 284 281 278 280 280 281 280 278 279 279 281 281
303 307 313 315 316 314 311 311 312 310 310 304 302 301 300 300 301 301 302 302 302 302 299 296 292 291 290 289 288 288 286 285 283 279 276 277 278 278 279 279 278 278 280
300 302 307 310 310 311 310 306 307 306 306 301 300 299 298 297 296 297 299 300 301 300 298 295 294 292 291 291 291 290 287 285 283 280 276 275 275 277 278 278 278 279 279
Wind_Speed
6 10 14 13 13 12 15 13 13 12 14 14 15 15 15 16 17 20 18 20 20 20 20 20 20 20 21 21 20 18 22 23 23 23 24 24 26 27 27 23 22 19 24
13 11 14 14 14 14 12 13 11 13 14 15 15 15 15 15 16 18 18 20 18 19 20 20 20 20 21 20 19 16 20 21 20 19 18 20 21 24 26 24 23 22 27
13 12 12 14 15 14 14 12 11 12 13 14 14 14 15 15 16 18 20 19 18 19 19 19 19 19 20 21 20 25 24 20 19 18 17 12 15 23 24 24 24 25 25
15 12 11 14 15 14 16 13 12 12 13 14 14 14 15 16 16 18 20 18 18 18 19 19 18 18 19 19 20 23 23 21 15 13 9 11 14 23 24 24 24 24 24
14 12 12 14 16 15 16 14 13 13 13 14 14 14 15 16 16 18 19 18 17 18 18 18 18 19 21 19 21 21 21 19 16 11 7 11 10 19 24 24 21 23 20
15 14 13 15 16 16 16 16 14 13 14 14 15 14 15 16 16 17 18 18 17 17 18 18 18 19 19 19 21 22 22 20 15 12 11 11 11 25 26 26 26 24 24
13 13 14 15 16 17 16 16 14 14 14 15 15 15 15 16 16 16 17 17 17 17 17 17 17 18 21 19 18 22 21 18 10 10 9 11 14 24 25 25 25 24 25
15 13 12 13 13 15 16 16 15 14 14 15 15 16 16 16 16 16 16 17 17 18 18 17 17 20 21 22 24 22 21 15 10 10 11 10 21 24 24 24 24 23 23
14 13 10 10 11 13 13 14 14 15 15 15 14 14 14 14 15 15 15 17 17 18 18 18 19 21 22 24 24 22 19 18 11 8 10 9 21 23 24 24 23 25 25
13 13 12 9 9 9 9 13 13 13 13 13 14 14 13 13 13 13 12 16 17 18 18 19 20 22 23 23 23 22 19 17 9 7 7 11 22 23 23 24 24 23 23
8 14 12 13 9 8 7 8 11 13 12 13 12 13 12 7 7 8 11 15 17 17 18 20 22 22 23 22 21 21 17 7 9 6 6 18 23 24 23 22 22 22 22
8 12 13 13 13 10 8 8 6 7 7 8 8 9 6 7 7 7 9 13 15 15 16 17 14 17 12 6 7 14 6 8 9 8 5 19 23 23 21 22 19 21 22
10 9 14 13 13 14 9 7 5 4 4 6 11 5 6 8 6 5 4 3 4 6 4 6 6 6 8 6 7 7 7 9 7 6 10 18 22 21 20 20 20 20 22
12 12 12 15 14 12 9 9 8 7 5 6 8 7 7 6 8 6 5 4 4 3 6 5 5 7 9 9 9 9 9 9 6 6 10 18 21 19 19 19 20 20 20
13 13 14 13 13 13 13 9 9 8 7 5 6 7 8 8 8 8 7 5 4 4 5 6 6 7 9 9 8 9 10 11 11 6 7 18 20 18 18 18 19 19 20
13 14 14 14 13 13 12 12 9 9 8 8 7 7 8 7 8 6 7 6 7 5 6 5 6 6 6 8 9 9 9 9 10 9 7 8 20 17 16 17 18 19 19
9 14 14 15 12 15 14 13 10 10 9 9 8 9 8 9 9 7 5 3 6 6 9 8 8 8 7 7 10 9 8 9 9 9 8 7 9 14 14 16 17 17 18
9 12 14 13 10 13 14 11 9 10 10 9 8 9 10 9 10 8 7 6 6 9 8 8 8 8 7 7 7 7 7 7 9 8 8 6 6 6 11 17 14 16 17
11 12 13 12 13 11 8 9 10 12 10 8 8 8 12 10 9 8 7 6 9 7 8 9 7 10 9 8 8 8 7 6 6 7 7 6 6 6 5 12 16 14 16
10 11 14 12 11 9 8 6 4 5 3 6 8 8 11 9 11 9 7 9 7 5 8 8 10 8 9 11 10 8 6 6 5 5 6 5 5 5 4 5 6 7 14
9 11 14 12 9 10 6 5 3 4 2 1 3 9 13 11 11 11 8 10 9 9 8 11 10 12 8 11 8 8 5 6 6 3 5 4 4 4 5 5 4 4 6
14 13 12 14 13 9 8 4 3 3 2 2 1 3 7 11 12 10 12 12 11 10 7 13 14 8 7 8 5 5 4 2 2 3 3 4 4 3 4 4 5 5 4
10 12 13 14 13 9 9 8 5 4 3 2 1 1 3 8 10 11 12 11 12 11 12 13 16 13 10 8 13 6 5 4 4 2 3 4 5 3 3 4 4 5 4
7 7 9 12 13 10 12 9 8 6 5 4 4 3 4 6 8 8 11 12 13 9 13 13 11 9 8 13 8 2 1 8 5 4 2 3 4 5 5 3 4 5 5
8 8 7 9 11 12 12 11 10 8 4 4 3 7 5 4 7 8 9 11 11 10 11 14 14 13 9 11 10 4 3 1 5 5 4 4 1 2 3 4 3 3 4
3 5 6 8 8 11 11 9 11 10 7 5 5 6 5 4 4 7 8 9 10 10 12 12 13 12 11 9 6 6 5 5 4 4 5 3 4 3 3 4 4 4 4
Wind_Direction
146 140 135 131 125 110 102 100 96 93 89 86 83 86 82 80 76 85 83 82 74 76 74 73 72 74 75 73 71 73 72 71 65 61 59 56 58 63 64 62 65 66 65
139 139 133 134 124 111 115 100 99 95 97 93 89 87 85 82 79 82 85 82 81 75 76 77 76 78 75 66 57 71 86 77 71 62 59 58 59 62 62 59 61 65 64
137 138 135 131 128 123 110 104 101 100 98 96 94 92 92 88 82 91 87 84 81 81 80 79 79 78 70 62 65 75 73 73 69 66 64 64 64 65 61 61 61 61 63
135 136 137 135 134 132 123 120 115 106 104 101 99 98 96 92 84 87 90 85 86 85 83 81 80 75 64 60 75 78 75 73 67 69 69 68 71 72 73 72 69 66 64
136 136 138 138 134 128 125 125 119 116 114 109 105 102 99 99 90 88 90 88 85 84 83 81 80 74 61 72 84 79 72 63 49 42 59 79 78 78 78 74 73 71 69
139 138 142 139 136 131 127 126 126 125 121 117 112 109 106 101 96 92 91 91 90 87 85 82 78 72 67 70 87 84 80 69 55 52 54 72 82 78 79 77 68 65 65
137 141 142 140 139 137 134 132 133 130 126 122 117 113 108 105 102 98 98 97 93 90 88 85 82 74 63 64 83 81 73 63 60 60 63 68 74 79 71 72 67 66 64
137 142 143 138 138 141 140 138 137 133 129 125 121 118 115 111 108 104 102 99 97 95 91 88 82 68 66 69 80 79 72 64 53 56 66 68 73 73 71 69 69 68 68
136 137 136 143 146 143 141 141 140 139 134 131 125 116 109 108 107 105 104 103 100 98 95 93 80 79 74 76 74 66 57 47 49 58 69 70 74 74 75 73 75 70 69
145 140 144 140 147 148 150 146 143 141 139 134 123 116 109 106 103 101 102 107 106 102 100 92 86 81 79 76 68 61 53 50 53 53 62 83 85 82 80 75 72 73 74
154 148 156 150 153 150 148 153 145 145 140 129 127 128 122 118 108 102 112 112 110 108 107 101 91 87 83 76 70 67 59 41 40 29 70 86 86 81 75 77 77 75 74
165 153 155 162 158 158 159 154 148 150 153 145 143 145 136 120 115 106 106 112 116 117 116 104 79 89 85 76 66 63 59 59 48 27 66 84 84 81 79 77 77 78 76
172 158 164 168 166 161 164 163 158 153 145 156 158 146 133 124 115 104 106 100 110 93 74 76 78 76 87 91 83 75 71 67 49 32 51 82 84 85 81 79 77 76 75
177 170 176 171 170 168 161 168 162 167 165 174 163 139 136 136 135 135 137 147 131 108 102 90 85 87 79 78 86 82 72 76 59 47 40 68 81 86 87 82 80 78 79
184 179 178 180 178 164 158 169 163 169 173 164 150 150 153 150 154 151 158 160 147 130 115 100 90 86 82 78 71 76 75 75 73 51 45 54 74 76 80 85 84 82 80
185 188 180 180 174 165 165 169 170 169 172 169 170 168 162 155 156 166 161 160 145 133 116 98 94 86 82 86 77 67 67 75 73 58 45 29 58 72 77 82 82 84 85
196 184 181 178 169 171 171 170 170 176 173 178 177 166 163 161 158 138 139 128 130 122 112 108 95 90 84 81 81 78 67 64 71 66 55 40 28 37 72 76 80 85 84
184 181 185 179 166 170 171 172 171 174 177 179 177 168 169 164 159 144 152 146 140 133 130 128 125 112 104 95 86 73 66 66 67 70 70 60 43 28 39 55 77 83 84
186 175 181 179 174 158 148 162 171 174 174 173 164 167 173 165 160 150 146 139 142 146 141 138 132 129 123 110 104 96 88 75 73 78 72 63 57 38 29 35 27 67 84
184 174 174 179 172 133 123 117 109 133 135 160 161 168 168 163 157 148 145 145 140 153 146 141 140 133 132 127 111 91 88 83 75 76 86 83 78 70 54 38 19 12 77
172 167 173 163 161 141 139 140 139 152 129 119 150 162 164 165 161 153 153 150 155 158 176 143 132 135 131 129 110 88 67 78 92 97 106 96 90 90 70 56 45 34 15
180 178 167 173 160 159 150 118 123 125 95 94 100 152 137 160 160 162 160 166 173 150 176 143 147 149 137 170 130 117 162 138 92 115 107 116 110 92 84 79 87 69 34
178 177 171 168 158 149 130 114 83 69 70 99 182 150 162 149 163 166 167 168 172 174 168 167 169 170 160 187 181 138 151 181 129 163 170 148 139 126 126 124 118 110 91
173 148 150 157 157 155 148 149 161 167 168 187 167 163 168 155 161 168 166 170 172 178 169 181 187 169 161 175 189 222 94 135 158 167 203 177 157 157 163 175 151 146 136
159 173 163 151 159 162 164 172 172 186 175 143 144 160 163 163 165 171 171 173 179 175 180 177 183 183 183 170 181 177 123 137 125 143 160 171 83 186 180 174 173 142 131
117 139 160 160 156 161 161 163 172 175 161 151 159 170 172 165 168 180 177 179 183 183 179 182 186 194 184 183 187 175 167 159 163 151 120 119 145 208 186 176 178 178 165